Stations météo

réclame
Mon MeteoGroup
Wittmund, Allemagne (10126): Température de l'air & dewpoint: 03.12.2019 21:00:00 - 09.12.2019 21:00:00 (CET)Wittmund, Allemagne (10126): Vitesse du vent & gusts: 03.12.2019 21:00:00 - 09.12.2019 21:00:00 (CET)Wittmund, Allemagne (10126): Direction du vent: 03.12.2019 21:00:00 - 09.12.2019 21:00:00 (CET)Wittmund, Allemagne (10126): reduced air pressure: 03.12.2019 21:00:00 - 09.12.2019 21:00:00 (CET)Wittmund, Allemagne (10126): visibility: 03.12.2019 21:00:00 - 09.12.2019 21:00:00 (CET)
Date & Time tt [°C] td [°C] ff [km/h] ff [knt] fx [km/h] fx [knt] dd ppp [hPa] vv [km]
09.12.2019 21:00:00 6,0 -0,3 25 14 47 25 NW 1010,3 25
09.12.2019 20:00:00 5,7 0,5 22 12 54 29 NNW 1008,7 25
09.12.2019 19:00:00 6,2 0,2 25 14 - - NW 1006,8 25
09.12.2019 18:00:00 6,9 0,7 29 16 50 27 NNW 1005,1 25
09.12.2019 17:00:00 7,3 1,8 29 16 50 27 NNW 1002,7 15
09.12.2019 16:00:00 6,9 4,2 14 8 - - NW 1000,6 15
09.12.2019 15:00:00 6,4 4,7 24 13 - - NW 998,7 4,0
09.12.2019 14:00:00 6,6 5,1 18 10 - - W 997,0 10
09.12.2019 13:00:00 6,9 4,4 16 9 - - W 995,6 10
09.12.2019 12:00:00 6,7 3,4 14 8 - - WSW 994,8 30
09.12.2019 11:00:00 6,2 3,6 18 10 - - SW 993,9 30
09.12.2019 10:00:00 5,8 3,5 18 10 - - SW 993,5 30
09.12.2019 09:00:00 6,3 3,6 18 10 - - SW 992,8 30
09.12.2019 08:00:00 6,4 3,7 25 14 - - SW 992,0 12
09.12.2019 07:00:00 6,4 3,6 25 14 - - SW 991,5 12
09.12.2019 06:00:00 5,9 3,4 25 14 - - SW 991,2 12
09.12.2019 05:00:00 5,9 3,5 25 14 47 25 SW 991,4 10
09.12.2019 04:00:00 6,0 3,5 29 16 - - SW 991,6 10
09.12.2019 03:00:00 6,1 3,4 29 16 47 25 SW 991,8 10
09.12.2019 02:00:00 5,9 3,7 25 14 - - SW 991,7 10
09.12.2019 01:00:00 6,0 3,5 22 12 - - SW 991,9 10
09.12.2019 00:00:00 6,9 3,9 32 18 54 29 SW 991,8 10
08.12.2019 23:00:00 6,3 3,9 18 10 - - SW 991,8 10
08.12.2019 22:00:00 6,4 2,7 22 12 - - WSW 992,2 10
08.12.2019 21:00:00 6,1 3,9 22 12 65 35 W 993,1 8
08.12.2019 20:00:00 7,7 4,0 29 16 47 25 SW 993,0 20
08.12.2019 19:00:00 7,7 4,2 22 12 - - SW 993,3 20
08.12.2019 18:00:00 8,3 4,7 25 14 47 25 WSW 993,6 20
08.12.2019 17:00:00 8,6 4,7 25 14 50 27 WSW 993,9 20
08.12.2019 16:00:00 9,4 4,9 36 19 - - W 994,0 20
08.12.2019 15:00:00 9,7 6,2 29 16 54 29 WSW 993,7 20
08.12.2019 14:00:00 10,2 7,2 29 16 50 27 WSW 993,4 15
08.12.2019 13:00:00 9,9 8,1 40 21 - - WSW 993,4 9
08.12.2019 12:00:00 9,4 8,1 36 19 58 31 SW 993,4 7
08.12.2019 11:00:00 8,9 7,8 36 19 61 33 SW 994,1 4,0
08.12.2019 10:00:00 8,6 7,5 36 19 - - SW 994,7 4,0
08.12.2019 09:00:00 8,5 6,7 36 19 68 37 SW 995,3 9
08.12.2019 08:00:00 8,1 6,0 39 21 61 33 SW 995,8 9
08.12.2019 07:00:00 8,9 4,9 36 19 - - SW 997,4 30
08.12.2019 06:00:00 9,0 5,2 36 19 58 31 SSW 998,3 30
08.12.2019 05:00:00 9,0 5,6 36 19 58 31 SW 999,7 30
08.12.2019 04:00:00 8,8 5,9 32 18 - - SW 1001,6 30
08.12.2019 03:00:00 8,4 5,5 32 18 54 29 SW 1002,8 30
08.12.2019 02:00:00 8,1 4,8 29 16 - - SSW 1004,1 10
08.12.2019 01:00:00 8,2 5,0 22 12 - - SW 1005,9 30
08.12.2019 00:00:00 8,3 5,2 25 14 - - SW 1007,2 20
07.12.2019 23:00:00 8,4 5,9 22 12 - - SW 1007,9 20
07.12.2019 22:00:00 8,4 6,5 22 12 - - SW 1008,6 20
07.12.2019 21:00:00 8,4 6,6 22 12 - - SW 1009,1 20
07.12.2019 20:00:00 8,6 7,0 18 10 - - WSW 1009,1 20
07.12.2019 19:00:00 8,6 6,6 18 10 - - WSW 1009,5 25
07.12.2019 18:00:00 8,8 6,8 18 10 - - WSW 1009,4 25
07.12.2019 17:00:00 9,1 6,8 22 12 - - W 1009,2 25
07.12.2019 16:00:00 9,1 7,2 29 16 - - W 1008,7 15
07.12.2019 15:00:00 9,5 6,8 25 14 47 25 W 1008,3 25
07.12.2019 14:00:00 9,3 6,6 29 16 47 25 W 1007,9 25
07.12.2019 13:00:00 9,6 6,8 32 18 - - W 1007,8 25
07.12.2019 12:00:00 9,0 6,2 32 18 50 27 W 1007,2 20
07.12.2019 11:00:00 9,3 7,2 32 18 47 25 W 1007,0 10
07.12.2019 10:00:00 9,2 7,3 32 18 - - W 1006,3 10
07.12.2019 09:00:00 8,9 7,2 32 18 47 25 W 1005,6 10
07.12.2019 08:00:00 9,0 7,2 32 18 50 27 W 1004,5 10
07.12.2019 07:00:00 9,1 7,2 32 18 - - W 1003,6 10
07.12.2019 06:00:00 9,0 7,3 32 18 47 25 W 1002,5 10
07.12.2019 05:00:00 8,9 7,1 32 18 - - W 1001,6 15
07.12.2019 04:00:00 8,5 7,0 32 18 - - W 1000,6 20
07.12.2019 03:00:00 8,7 7,4 28 15 - - W 999,4 10
07.12.2019 02:00:00 8,5 7,6 18 10 - - WSW 998,7 10
07.12.2019 01:00:00 8,2 7,3 22 12 - - WSW 998,4 6
07.12.2019 00:00:00 8,1 7,2 28 15 50 27 SW 998,1 3,5
06.12.2019 23:00:00 8,3 7,2 32 18 54 29 SW 997,7 5
06.12.2019 22:00:00 8,2 7,1 29 16 - - SW 998,0 3,5
06.12.2019 21:00:00 8,0 6,9 29 16 50 27 SW 998,5 6
06.12.2019 20:00:00 7,6 6,6 29 16 50 27 SW 998,8 4,5
06.12.2019 19:00:00 7,3 6,4 29 16 - - SW 999,3 4,0
06.12.2019 18:00:00 6,9 5,8 29 16 50 27 SW 999,6 4,0
06.12.2019 17:00:00 6,4 5,5 29 16 54 29 SW 1000,1 5
06.12.2019 16:00:00 6,3 5,3 29 16 - - SW 1000,7 5
06.12.2019 15:00:00 6,1 5,0 32 18 61 33 SW 1001,4 4,0
06.12.2019 14:00:00 5,7 4,8 29 16 50 27 SSW 1002,1 3,7
06.12.2019 13:00:00 5,6 4,5 32 18 - - SW 1003,3 4,0
06.12.2019 12:00:00 5,6 4,5 29 16 50 27 SW 1004,0 5
06.12.2019 11:00:00 5,7 4,7 32 18 50 27 SW 1005,1 4,0
06.12.2019 10:00:00 6,0 5,0 29 16 - - SW 1005,3 5
06.12.2019 09:00:00 6,0 5,3 25 14 47 25 SW 1005,6 2,0
06.12.2019 08:00:00 6,3 5,4 32 18 58 31 SW 1005,9 3,5
06.12.2019 07:00:00 6,3 5,2 32 18 - - SW 1005,8 9
06.12.2019 06:00:00 6,2 5,0 32 18 50 27 SW 1005,9 7
06.12.2019 05:00:00 6,0 5,0 29 16 58 31 SW 1006,2 6
06.12.2019 04:00:00 6,1 4,7 29 16 - - SW 1006,4 6
06.12.2019 03:00:00 5,9 4,1 32 18 54 29 SW 1006,8 6
06.12.2019 02:00:00 5,2 3,6 32 18 61 33 SW 1007,3 6
06.12.2019 01:00:00 4,9 3,6 36 19 - - SW 1007,9 6
06.12.2019 00:00:00 4,6 3,3 32 18 58 31 SW 1009,0 5
05.12.2019 23:00:00 4,2 2,7 32 18 50 27 SW 1010,0 5
05.12.2019 22:00:00 3,8 2,8 34 18 - - SW 1011,2 5
05.12.2019 21:00:00 3,6 2,6 32 18 47 25 SSW 1012,0 4,0
05.12.2019 20:00:00 2,8 1,8 29 16 - - SSW 1012,9 4,0
05.12.2019 19:00:00 3,0 1,9 29 16 - - SSW 1013,7 5
05.12.2019 18:00:00 2,9 1,9 21 11 - - SSW 1014,5 4,0
05.12.2019 17:00:00 2,6 2,2 21 11 - - SSW 1015,0 2,5
05.12.2019 16:00:00 1,8 1,4 24 13 - - SSW 1015,9 0,8
05.12.2019 15:00:00 1,4 1,0 22 12 - - SSW 1016,7 0,4
05.12.2019 14:00:00 2,1 1,6 18 10 - - SW 1017,4 0,9
05.12.2019 13:00:00 2,7 1,7 15 8 - - SW 1017,6 1,5
05.12.2019 12:00:00 3,5 1,8 14 8 - - SW 1017,7 7
05.12.2019 11:00:00 1,8 0,5 14 8 - - SSW 1018,1 7
05.12.2019 10:00:00 1,1 0,1 14 8 - - SSW 1018,0 8
05.12.2019 09:00:00 0,1 -0,6 14 8 - - S 1017,8 7
05.12.2019 08:00:00 0,2 -0,4 11 6 - - SSW 1018,6 7
05.12.2019 07:00:00 0,2 -0,5 11 6 - - SSW 1018,6 6
05.12.2019 06:00:00 0,5 -0,1 7 4 - - WSW 1018,4 6
05.12.2019 05:00:00 0,1 -0,6 11 6 - - SSW 1019,1 6
05.12.2019 04:00:00 1,0 0,1 5 3 - - WSW 1018,9 7
05.12.2019 03:00:00 0,9 0,1 7 4 - - SSW 1018,9 9
05.12.2019 02:00:00 0,4 -0,4 7 4 - - SSW 1019,2 9
05.12.2019 01:00:00 1,2 0,3 11 6 - - SSW 1019,6 10
05.12.2019 00:00:00 1,6 0,6 7 4 - - SW 1020,1 8
04.12.2019 23:00:00 1,7 0,7 11 6 - - SSW 1020,2 8
04.12.2019 22:00:00 2,2 1,2 7 4 - - SW 1020,8 8
04.12.2019 21:00:00 3,0 1,6 11 6 - - SSW 1020,9 8
04.12.2019 20:00:00 2,5 1,4 7 4 - - SSW 1020,8 8
04.12.2019 19:00:00 3,4 2,2 7 4 - - SSW 1020,8 8
04.12.2019 18:00:00 4,8 3,0 11 6 - - SSW 1020,7 8
04.12.2019 17:00:00 5,1 3,5 11 6 - - SSW 1020,7 8
04.12.2019 16:00:00 6,1 4,1 11 6 - - SW 1021,0 10
04.12.2019 15:00:00 6,7 4,2 14 8 - - SW 1020,9 12
04.12.2019 14:00:00 6,6 4,1 14 8 - - SW 1021,0 10
04.12.2019 13:00:00 5,5 3,7 13 7 - - SW 1021,4 9
04.12.2019 12:00:00 3,9 3,5 14 8 - - SW 1022,0 3,5
04.12.2019 11:00:00 3,4 3,1 15 8 - - SW 1022,0 0,4
04.12.2019 10:00:00 3,9 3,6 14 8 - - SW 1022,0 0,4
04.12.2019 09:00:00 4,7 4,4 14 8 - - SSW 1021,7 0,5
04.12.2019 08:00:00 4,8 4,5 14 8 - - SW 1021,4 0,5
04.12.2019 07:00:00 4,4 4,0 14 8 - - SW 1021,5 0,6
04.12.2019 06:00:00 4,1 3,7 14 8 - - SW 1021,7 1,2
04.12.2019 05:00:00 4,3 3,7 14 8 - - SW 1021,8 3,0
04.12.2019 04:00:00 4,4 3,8 14 8 - - SW 1022,0 2,8
04.12.2019 03:00:00 4,7 4,0 14 8 - - SW 1022,4 4,0
04.12.2019 02:00:00 4,8 3,9 18 10 - - SW 1022,8 4,5
04.12.2019 01:00:00 4,8 3,7 18 10 - - SW 1023,0 7
04.12.2019 00:00:00 5,2 3,7 18 10 - - WSW 1023,3 7
03.12.2019 23:00:00 5,4 3,8 18 10 - - WSW 1023,1 9
03.12.2019 22:00:00 5,8 4,1 18 10 - - SW 1023,4 10
03.12.2019 21:00:00 6,1 4,4 14 8 - - SW 1023,6 10

tt = Température de l'air
td = dewpoint
ff = Vitesse du vent
fx = gusts
dd = Direction du vent
ppp = reduced air pressure
vv = visibility

stations d'obs. à proximité